Theta_e
307 308 307 308 308 308 307 307 307 307 306 306 306 307 305 305 306 317 315 313 313 331 340 336 333 341 347 350 351 353 364 361 359 363 363 356 359 357 354 355 352 351 350 345 344
307 308 308 308 308 308 307 306 307 307 306 306 306 308 305 306 317 315 314 310 312 331 335 329 335 344 350 351 354 358 363 357 354 354 361 359 359 358 355 354 353 352 348 344 344
307 308 309 309 308 307 307 307 306 306 307 306 306 308 308 314 319 318 321 309 314 324 330 327 333 342 347 350 355 357 359 354 352 353 353 359 357 355 357 356 354 354 350 345 345
307 307 307 308 307 308 308 306 306 306 306 306 306 308 309 319 318 323 321 309 316 330 329 327 335 341 344 350 352 359 354 353 350 348 352 355 356 359 355 356 349 351 347 345 346
307 306 307 306 306 307 308 307 306 306 306 306 306 308 318 319 315 327 319 310 323 329 327 329 331 332 338 341 349 354 353 349 346 343 344 349 355 357 358 352 350 348 346 346 345
310 308 307 306 306 308 307 307 307 306 306 306 307 308 317 316 323 323 322 325 325 325 324 326 327 329 332 338 343 347 347 346 342 339 341 352 355 356 357 353 351 348 347 346 345
312 311 310 307 306 307 308 307 306 305 306 306 308 316 317 316 325 321 327 325 323 322 324 324 327 329 332 336 338 342 345 344 344 343 348 352 360 359 356 353 352 349 347 346 345
311 311 309 308 308 309 309 307 310 308 307 306 311 320 320 318 325 324 326 326 320 321 322 324 328 329 330 335 337 340 342 347 347 346 350 356 363 360 355 354 353 351 348 347 347
311 309 309 310 310 309 308 315 314 308 307 312 322 323 321 325 326 321 321 324 321 320 321 321 327 329 331 333 335 338 344 344 349 349 353 357 360 361 356 353 353 351 349 349 348
309 310 311 311 311 309 309 314 317 319 320 321 321 322 321 322 325 323 322 321 321 321 320 321 327 329 331 331 334 337 342 344 342 353 352 355 357 361 358 356 355 351 351 351 349
310 311 312 311 310 308 314 317 319 323 318 319 317 318 321 320 324 323 323 322 322 322 323 321 326 326 329 331 335 335 340 342 338 348 346 343 337 352 357 359 358 352 353 353 350
312 312 312 310 309 308 313 316 315 314 317 318 318 317 318 319 321 323 323 326 323 322 322 322 324 326 329 333 337 336 339 340 335 333 338 334 335 349 350 357 359 355 353 354 351
312 312 311 310 308 310 312 313 311 312 317 316 317 318 318 318 320 325 324 324 325 322 322 323 323 326 332 336 338 336 337 340 339 334 334 339 342 354 353 353 357 355 354 353 352
312 312 311 309 311 313 314 312 312 312 318 316 316 317 317 319 318 322 323 323 324 327 323 322 323 324 330 336 335 336 335 335 336 336 338 336 346 349 358 357 360 357 355 353 352
312 310 308 309 314 315 312 313 311 313 320 316 316 315 319 319 317 321 322 322 325 327 327 325 323 325 330 334 334 336 335 335 335 338 335 332 339 350 350 359 360 359 357 353 350
313 313 310 312 313 312 312 312 311 319 319 316 315 317 317 316 317 319 320 319 323 325 327 327 324 326 331 334 335 335 333 332 333 335 337 334 335 340 344 340 341 356 358 356 353
313 313 313 313 316 315 315 315 319 320 317 316 315 317 317 316 317 319 319 320 324 327 328 325 327 328 331 335 334 334 333 333 332 333 334 333 334 339 335 336 340 342 341 357 354
314 313 314 314 314 315 315 319 321 318 318 317 316 316 316 317 317 319 320 321 319 320 327 325 326 327 328 333 334 334 333 332 333 332 332 331 332 333 333 341 349 350 344 344 356
316 317 316 314 313 313 319 321 321 318 317 318 316 316 317 316 318 319 320 320 319 318 323 326 323 318 319 320 324 332 334 330 329 330 331 331 334 329 331 344 344 349 349 349 355
320 319 316 313 313 317 320 318 319 316 316 318 319 318 317 317 318 318 320 319 319 317 317 321 323 319 318 319 321 325 328 330 328 332 333 332 334 333 335 345 344 344 347 351 351
319 321 316 313 314 320 321 318 317 316 315 318 318 319 318 319 318 320 319 318 317 318 317 318 321 320 320 322 324 323 325 326 328 329 331 333 333 325 336 339 339 337 334 338 342
318 321 315 315 319 318 319 316 311 316 316 315 316 317 319 319 320 319 319 318 316 319 317 317 320 321 321 317 317 321 324 326 328 331 330 331 328 328 333 332 328 326 325 325 327
319 318 315 317 320 318 316 315 315 316 316 317 317 316 316 319 320 319 318 314 316 319 320 316 318 321 320 319 318 321 320 322 323 326 331 329 327 330 331 333 322 320 319 319 319
317 318 316 317 316 318 316 315 315 313 314 315 316 316 318 319 319 319 317 315 314 318 317 317 318 319 320 321 321 321 319 320 323 327 329 329 327 330 329 329 328 319 316 316 316
317 315 315 315 315 315 315 314 314 315 314 314 314 315 317 320 320 319 318 317 316 316 318 321 322 320 318 317 318 318 318 318 321 324 327 326 327 328 327 325 323 323 321 317 316
317 316 314 315 315 315 313 315 315 315 315 315 315 314 316 318 318 319 318 318 318 317 318 318 322 321 320 317 318 318 317 316 316 318 322 323 324 322 323 323 322 321 321 320 318
315 313 317 312 315 316 316 314 314 315 315 314 314 316 316 315 315 315 314 315 315 317 317 318 320 321 320 317 316 317 318 316 317 318 320 322 324 321 321 320 319 319 320 319 318
Wind_Speed
14 14 15 15 14 14 13 13 12 12 11 11 12 9 7 6 5 5 9 5 10 23 19 17 14 13 14 8 4 4 4 7 11 12 8 8 4 5 3 9 3 7 6 26 31
15 15 16 16 16 15 14 12 12 12 12 10 10 10 6 5 7 13 10 13 15 27 23 20 16 17 10 9 5 3 2 11 8 11 11 9 7 7 6 7 5 7 12 30 32
15 16 16 16 16 15 14 14 12 11 12 10 9 6 6 2 7 3 3 17 21 27 20 16 16 14 8 8 7 5 2 3 9 10 10 12 10 8 8 9 8 13 23 29 31
16 17 17 17 16 15 15 14 13 12 11 10 7 5 3 4 1 3 2 20 26 22 20 16 16 13 10 10 8 4 3 1 5 6 6 7 9 9 12 1 6 14 24 30 25
17 17 17 17 16 16 16 15 14 12 11 9 5 4 3 7 2 4 13 23 24 21 23 17 16 12 12 11 8 7 4 2 4 3 2 4 9 4 11 13 13 19 25 25 22
18 17 16 16 16 17 17 17 15 13 10 9 4 3 6 7 4 9 19 22 21 22 20 16 11 8 8 9 11 4 8 6 4 1 5 7 8 9 11 14 17 22 24 23 22
19 18 17 16 16 17 19 19 16 12 10 8 6 4 7 4 3 12 17 19 20 18 16 16 9 11 6 7 7 6 9 8 2 5 8 8 9 6 14 15 19 21 21 21 22
19 19 18 17 17 19 19 14 10 9 9 8 7 5 3 1 7 14 14 16 13 14 12 8 11 8 10 4 7 11 8 11 7 7 6 9 9 13 15 16 17 19 20 19 20
20 19 18 18 18 18 15 5 12 5 9 10 6 6 6 4 13 14 15 17 16 12 9 8 10 11 8 13 11 11 12 12 8 4 8 8 12 13 15 15 16 11 16 18 19
18 19 21 19 18 16 3 8 9 8 9 5 3 6 6 9 13 14 10 16 15 12 11 10 9 10 12 13 14 16 14 12 9 9 9 9 12 13 15 17 15 16 17 18 19
20 21 21 18 15 9 9 3 5 6 8 5 3 3 11 12 15 14 14 15 12 14 13 15 11 16 17 16 7 11 15 14 6 8 6 4 5 10 15 16 18 15 15 18 19
22 21 19 12 9 4 5 5 5 4 4 9 8 6 5 8 12 17 19 11 14 15 14 11 17 15 13 11 9 10 13 10 6 6 6 7 6 7 14 15 16 15 18 19 20
22 18 13 9 3 3 2 3 3 6 6 6 5 7 10 11 15 20 19 10 15 16 16 16 10 11 12 16 14 13 14 12 6 7 4 5 8 8 8 12 11 15 17 18 20
19 14 8 5 3 3 2 5 10 6 5 6 7 7 8 10 9 24 26 12 9 14 15 11 7 15 17 18 16 14 9 5 9 8 10 8 7 8 10 11 10 12 14 16 19
14 11 6 4 2 2 4 11 2 6 4 4 7 4 12 17 19 15 25 12 13 11 10 11 17 18 19 17 15 5 9 12 9 10 2 10 9 9 7 11 10 12 15 17 16
9 9 5 2 2 3 8 6 7 7 5 3 3 11 15 10 8 15 17 11 4 10 15 3 12 14 13 12 13 9 10 8 7 10 11 11 13 8 5 3 1 12 18 17 18
4 12 6 1 5 8 8 7 5 3 1 4 3 12 16 11 9 20 18 15 10 12 13 7 12 11 14 16 15 14 14 9 9 9 9 15 9 11 7 6 5 4 10 19 18
2 6 8 5 8 5 5 6 3 3 6 3 1 8 10 11 7 11 12 11 1 10 14 12 13 15 7 15 13 18 18 8 11 12 13 8 10 7 9 9 9 10 3 15 19
1 1 8 11 5 3 7 5 6 6 7 6 8 10 11 7 7 8 6 4 4 7 6 14 8 6 1 2 8 19 18 13 7 4 12 12 12 13 7 11 14 16 11 3 15
1 3 13 12 4 7 1 7 5 8 6 3 10 4 8 7 10 7 3 5 3 6 6 1 6 3 2 5 2 6 13 10 9 12 14 12 17 9 7 11 14 17 18 13 4
3 3 12 9 4 2 5 5 5 9 6 6 4 8 3 5 5 3 3 7 6 5 5 6 6 9 8 3 5 9 10 10 12 8 13 9 7 6 7 10 12 14 15 17 20
4 1 14 4 2 3 7 4 3 8 6 4 5 6 7 3 7 3 5 5 8 5 2 6 4 10 7 5 2 3 4 9 11 13 8 7 7 7 9 12 11 13 14 16 17
3 4 13 6 3 6 6 8 9 10 10 4 5 6 3 3 4 6 5 3 7 3 3 3 1 8 10 8 5 3 2 4 8 8 17 11 8 9 10 12 13 14 14 14 16
1 1 5 6 4 5 7 7 5 7 10 8 4 1 3 5 3 8 6 3 3 6 5 4 3 5 2 7 7 8 4 1 8 11 8 6 19 13 11 12 12 14 13 14 15
4 4 4 3 7 8 7 3 6 3 5 4 5 5 2 3 6 5 4 6 4 4 1 4 4 5 6 6 4 3 3 2 1 5 7 17 16 13 11 11 11 11 12 13 15
2 1 4 5 2 6 4 6 7 7 3 8 8 8 5 7 5 7 4 0 3 2 2 3 3 5 3 1 1 5 3 2 2 3 6 12 14 10 8 8 8 9 10 12 13
3 2 4 1 2 1 7 5 5 4 7 6 5 5 7 6 4 5 4 3 4 3 1 2 5 6 9 3 3 8 10 5 6 2 1 10 13 5 7 5 6 6 6 10 12
Wind_Direction
351 352 351 348 348 346 344 342 338 336 336 329 326 323 305 283 281 243 237 215 187 166 157 154 164 172 184 198 222 231 262 77 48 65 112 139 132 133 145 149 177 158 126 148 149
349 348 345 343 342 341 339 335 331 327 326 326 323 326 309 296 260 250 235 201 176 166 169 169 166 167 192 198 197 237 279 68 41 67 123 152 160 131 127 143 163 138 139 146 153
345 342 340 339 337 335 333 330 324 318 318 322 316 326 315 322 269 148 253 182 173 170 176 178 167 185 178 195 192 185 142 88 68 66 116 136 159 158 169 185 176 160 151 156 158
340 336 335 335 333 332 327 322 316 310 306 312 307 303 317 260 231 96 175 175 172 173 175 177 182 189 193 197 185 230 196 304 75 81 129 155 160 184 151 73 177 157 160 158 163
336 336 336 333 332 327 322 318 311 301 295 295 292 273 284 226 278 353 161 164 167 176 183 180 185 196 202 201 187 211 222 220 187 204 202 149 173 183 169 135 153 150 159 163 166
333 334 334 330 327 322 320 317 306 293 277 274 261 196 252 239 4 131 145 152 170 184 185 190 197 195 218 216 219 167 235 256 265 121 143 175 152 170 148 133 141 155 163 167 172
330 329 330 329 324 322 320 316 304 284 260 245 202 184 250 15 95 145 152 158 164 182 185 197 212 200 158 180 212 221 235 199 190 148 147 176 148 144 137 148 152 164 168 168 177
330 328 328 327 322 322 321 323 313 273 237 200 175 190 285 176 158 156 155 151 154 172 193 171 212 209 228 97 197 219 231 198 137 179 138 223 125 129 144 150 160 171 173 174 182
331 334 326 323 320 322 331 46 30 101 143 141 159 229 139 125 163 166 167 165 159 151 167 188 204 213 174 203 189 200 204 210 138 214 149 230 124 139 156 158 161 169 191 183 184
342 331 324 321 320 320 162 111 104 70 111 161 250 224 175 182 155 160 176 168 169 154 151 185 203 207 214 202 198 189 228 186 163 167 192 183 115 148 169 175 173 180 203 188 188
334 327 322 319 319 328 144 157 196 174 211 276 113 346 137 118 143 168 157 163 177 186 185 192 201 208 196 208 299 185 208 182 128 165 202 163 146 162 174 184 170 190 203 191 193
329 328 324 324 321 105 167 265 30 8 274 215 247 253 205 163 152 168 170 168 179 188 188 176 218 200 198 193 178 193 194 178 145 134 249 154 178 138 187 189 188 184 197 197 193
333 331 330 326 160 146 239 11 299 310 254 138 186 225 185 194 172 168 190 184 195 194 196 203 195 172 196 193 194 196 205 169 199 167 201 219 185 166 179 188 169 187 193 198 192
341 340 346 116 150 172 164 309 301 214 248 114 173 181 179 202 174 170 192 191 194 204 205 230 149 182 195 198 207 193 212 173 191 213 207 219 170 166 147 170 175 195 201 198 197
2 17 55 180 358 244 342 320 235 223 201 96 130 122 160 200 137 174 188 204 203 197 198 201 196 193 194 198 206 169 177 202 205 216 248 192 261 116 164 157 180 214 205 207 193
13 31 43 21 230 321 310 293 223 232 91 102 138 168 172 173 177 150 185 232 294 192 214 235 206 195 194 184 202 116 170 171 199 218 214 202 232 108 89 38 104 197 197 216 194
44 50 36 350 341 313 302 238 216 350 172 52 82 176 177 158 150 161 180 195 205 190 193 174 190 179 207 185 193 194 185 173 194 200 225 183 219 69 80 44 6 296 245 205 203
161 46 3 339 315 303 243 231 62 56 23 21 147 189 133 138 120 143 163 166 109 282 176 189 167 183 193 214 188 207 207 211 199 202 179 156 219 109 78 51 29 3 289 210 195
137 280 3 352 337 284 249 50 25 9 360 341 183 166 141 123 147 130 99 81 36 349 279 194 126 123 23 232 268 188 225 249 277 286 202 165 93 105 72 52 40 26 25 173 190
281 239 23 344 322 256 69 85 76 20 333 293 133 288 176 128 159 150 137 40 36 15 319 239 136 215 106 205 183 283 215 210 238 185 219 169 170 89 45 34 39 38 20 21 171
247 243 12 349 298 9 66 68 50 47 9 21 64 140 19 108 75 90 58 80 13 345 332 297 259 145 195 242 196 193 209 237 236 257 218 164 135 68 57 47 46 46 34 30 33
317 255 3 329 60 43 57 20 330 19 44 78 62 55 93 77 93 88 109 38 351 306 37 6 299 167 119 111 325 313 318 238 221 197 255 270 100 98 82 76 66 55 50 41 41
32 27 14 288 96 96 104 88 44 34 32 46 51 48 43 108 113 117 123 53 6 25 18 359 327 154 168 169 180 184 149 254 271 286 215 236 121 119 104 92 78 69 60 54 52
305 132 71 56 31 83 114 63 106 36 51 54 42 78 153 90 88 147 134 75 37 36 347 260 124 358 290 69 112 154 129 7 255 233 214 233 128 132 112 95 87 86 66 54 52
349 66 347 45 60 70 80 75 85 94 67 17 52 44 8 139 117 124 133 147 92 30 310 319 151 127 72 67 70 111 113 47 9 326 266 134 135 121 109 94 81 74 77 62 44
17 70 88 79 73 106 136 71 79 88 5 60 88 60 61 89 6 139 151 116 41 354 355 329 165 178 150 94 318 251 174 197 170 142 108 143 116 114 115 104 77 61 54 48 42
64 100 306 128 90 26 44 58 80 102 67 66 87 74 74 62 58 74 60 84 59 337 125 266 176 212 219 186 240 239 216 204 133 125 237 189 104 138 118 72 28 11 52 34 21